Location: Bowman Observatory
(41.0326°N, 73.6210°W)
Time: 03:55:51
(UTC-04:00)

Cosmos 2297 - Visible Passes

Search period start: 01 September 2015 00:00
Search period end: 11 September 2015 00:00
Orbit: 838 x 857 km, 71.0° (Epoch: 31 August)

Date Brightness Start Highest point End Pass type
(mag) Time Alt. Az. Time Alt. Az. Time Alt. Az.
01 Sep 6.0 02:26:51 10° N 02:30:50 20° NE 02:35:00 10° E visible
01 Sep 3.6 04:10:00 10° NNW 04:15:37 67° WSW 04:21:15 10° SSE visible
02 Sep 6.0 02:13:34 10° N 02:17:31 19° NE 02:21:24 11° E visible
02 Sep 3.5 03:56:41 10° NNW 04:02:19 69° WSW 04:03:06 60° SSW visible
03 Sep 6.0 02:00:17 10° N 02:04:11 19° NE 02:05:58 17° ENE visible
03 Sep 4.0 03:43:22 10° NNW 03:47:45 53° NW 03:47:45 53° NW visible
04 Sep 5.9 01:47:01 10° N 01:50:51 19° NE 01:51:21 19° NE visible
04 Sep 4.8 03:30:03 10° NNW 03:33:11 34° NW 03:33:11 34° NW visible
05 Sep 6.0 01:33:44 10° N 01:37:09 18° NE 01:37:09 18° NE visible
05 Sep 5.3 03:16:44 10° NNW 03:19:00 25° NNW 03:19:00 25° NNW visible
06 Sep 6.1 01:20:28 10° N 01:23:11 17° NE 01:23:11 17° NE visible
06 Sep 5.6 03:03:25 10° NNW 03:05:03 20° NNW 03:05:03 20° NNW visible
07 Sep 6.2 01:07:11 10° N 01:09:22 16° NNE 01:09:22 16° NNE visible
07 Sep 5.9 02:50:06 10° NNW 02:51:15 17° NNW 02:51:15 17° NNW visible
08 Sep 6.2 00:53:55 10° N 00:55:42 15° NNE 00:55:42 15° NNE visible
08 Sep 6.1 02:36:48 10° NNW 02:37:35 14° NNW 02:37:35 14° NNW visible
09 Sep 6.3 00:40:38 10° N 00:42:06 14° NNE 00:42:06 14° NNE visible
09 Sep 6.2 02:23:29 10° NNW 02:24:00 13° NNW 02:24:00 13° NNW visible
10 Sep 6.3 00:27:22 10° N 00:28:35 13° NNE 00:28:35 13° NNE visible
10 Sep 6.3 02:10:10 10° NNW 02:10:28 12° NNW 02:10:28 12° NNW visible
